Stations météo

réclame
Mon MeteoGroup
Dunkerque, France (7010): Température de l'air & dewpoint: 29.07.2020 19:00:00 - 04.08.2020 19:00:00 (CEST)Dunkerque, France (7010): Vitesse du vent & gusts: 29.07.2020 19:00:00 - 04.08.2020 19:00:00 (CEST)Dunkerque, France (7010): Direction du vent: 29.07.2020 19:00:00 - 04.08.2020 19:00:00 (CEST)Dunkerque, France (7010): reduced air pressure: 29.07.2020 19:00:00 - 04.08.2020 19:00:00 (CEST)Dunkerque, France (7010): visibility: 29.07.2020 19:00:00 - 04.08.2020 19:00:00 (CEST)Dunkerque, France (7010): Quantités de précipitations: 29.07.2020 19:00:00 - 04.08.2020 19:00:00 (CEST)
Date & Time tt [°C] td [°C] ff [km/h] ff [knt] fx [km/h] fx [knt] dd ppp [hPa] vv [km] rr [mm]
04.08.2020 19:00:00 - - - - - - - - - -
04.08.2020 18:00:00 21,6 8,8 20 11 48 26 WSW 1016,8 10 0,0
04.08.2020 17:00:00 21,5 12,6 28 15 54 29 W 1016,9 18 0,0
04.08.2020 16:00:00 20,8 14,0 32 17 48 26 W 1016,8 10 0,0
04.08.2020 15:00:00 21,0 13,9 21 11 35 19 WNW 1017,4 10 0,0
04.08.2020 14:00:00 22,0 8,1 15 8 31 17 SSW 1017,5 20 0,0
04.08.2020 13:00:00 22,6 9,0 15 8 31 17 SSW 1017,7 10 0,0
04.08.2020 12:00:00 20,7 9,9 13 7 24 13 S 1018,1 10 0,0
04.08.2020 11:00:00 19,6 10,8 13 7 21 11 S 1018,2 20 0,0
04.08.2020 10:00:00 18,9 11,9 10 6 17 9 SSE 1018,5 10 0,0
04.08.2020 09:00:00 17,3 12,4 9 5 12 7 SSE 1018,1 8 0,0
04.08.2020 08:00:00 14,7 12,4 6 3 9 5 S 1017,7 10 0,0
04.08.2020 07:00:00 13,1 11,5 5 3 10 5 SSW 1017,6 10 0,0
04.08.2020 06:00:00 14,8 11,4 5 3 10 6 S 1017,5 10 0,0
04.08.2020 05:00:00 15,7 11,5 7 4 11 6 N 1017,5 - 0,0
04.08.2020 04:00:00 15,9 11,9 7 4 13 7 N 1017,6 - 0,0
04.08.2020 03:00:00 16,2 12,2 9 5 15 8 N 1017,6 - 0,0
04.08.2020 02:00:00 16,3 12,3 11 6 16 9 N 1017,8 20 0,0
04.08.2020 01:00:00 16,6 12,3 11 6 16 9 N 1017,6 10 0,0
04.08.2020 00:00:00 16,7 12,4 10 5 17 9 N 1017,5 10 0,0
03.08.2020 23:00:00 16,8 11,5 9 5 16 8 NNW 1017,1 15 0,0
03.08.2020 22:00:00 16,7 11,8 7 4 21 12 N 1016,6 10 0,0
03.08.2020 21:00:00 17,3 11,8 15 8 24 13 NNE 1016,1 10 0,0
03.08.2020 20:00:00 18,2 12,4 15 8 23 12 N 1015,7 20 0,0
03.08.2020 19:00:00 18,8 13,4 13 7 21 11 NNE 1015,5 10 0,0
03.08.2020 18:00:00 19,3 13,2 14 8 21 11 N 1015,3 10 0,0
03.08.2020 17:00:00 18,8 13,0 13 7 25 13 NNE 1015,1 10 0,0
03.08.2020 16:00:00 18,5 12,7 16 9 29 15 N 1015,5 10 0,0
03.08.2020 15:00:00 18,0 13,1 17 9 31 17 N 1015,5 10 0,0
03.08.2020 14:00:00 18,4 13,9 21 11 35 19 N 1015,1 15 0,0
03.08.2020 13:00:00 18,5 13,6 23 13 41 22 N 1014,7 10 0,0
03.08.2020 12:00:00 18,5 15,0 22 12 39 21 N 1014,2 10 0,0
03.08.2020 11:00:00 19,3 14,8 11 6 19 10 W 1014,5 10 0,0
03.08.2020 10:00:00 18,5 14,6 16 9 22 12 W 1014,3 10 0,0
03.08.2020 09:00:00 17,8 15,4 13 7 20 11 W 1014,2 10 0,0
03.08.2020 08:00:00 16,1 14,6 13 7 21 11 SSW 1014,1 15 0,0
03.08.2020 07:00:00 15,6 14,3 15 8 21 11 SSW 1014,0 10 0,0
03.08.2020 06:00:00 16,2 14,7 11 6 24 13 SSW 1013,9 10 0,0
03.08.2020 05:00:00 17,2 15,0 16 8 27 15 WSW 1014,1 - 0,0
03.08.2020 04:00:00 17,3 14,8 18 10 31 17 WSW 1014,5 - 0,0
03.08.2020 03:00:00 17,4 15,0 12 7 25 13 WSW 1015,0 - 0,0
03.08.2020 02:00:00 17,1 14,6 14 8 28 15 SW 1015,3 15 0,0
03.08.2020 01:00:00 16,5 14,1 17 9 32 18 SW 1015,7 10 0,0
03.08.2020 00:00:00 16,7 13,8 18 10 28 15 SW 1016,1 10 0,0
02.08.2020 23:00:00 16,9 13,8 18 10 31 17 SW 1016,4 10 0,0
02.08.2020 22:00:00 17,6 13,1 20 11 34 18 SW 1016,5 10 0,0
02.08.2020 21:00:00 18,4 12,6 21 11 38 20 SW 1016,3 10 0,0
02.08.2020 20:00:00 19,5 11,8 22 12 37 20 SW 1016,5 10 0,0
02.08.2020 19:00:00 20,0 13,5 27 15 37 20 W 1016,4 10 0,0
02.08.2020 18:00:00 20,0 14,1 27 15 36 20 W 1016,7 10 0,0
02.08.2020 17:00:00 20,0 12,7 23 12 30 16 W 1016,8 10 0,0
02.08.2020 16:00:00 20,4 11,3 20 11 29 15 WNW 1017,1 10 0,0
02.08.2020 15:00:00 19,3 10,8 21 11 32 17 WNW 1017,5 10 0,0
02.08.2020 14:00:00 19,0 12,5 20 11 26 14 WNW 1017,6 20 0,0
02.08.2020 13:00:00 19,2 12,0 18 10 27 14 WNW 1017,8 10 0,0
02.08.2020 12:00:00 19,2 12,0 16 9 25 13 WNW 1017,9 10 0,0
02.08.2020 11:00:00 18,4 12,2 17 9 28 15 W 1017,5 20 0,0
02.08.2020 10:00:00 17,8 12,7 21 12 32 17 WNW 1017,2 10 0,0
02.08.2020 09:00:00 17,8 12,0 24 13 35 19 WNW 1016,8 10 0,0
02.08.2020 08:00:00 17,9 12,8 23 13 32 17 W 1016,4 10 0,0
02.08.2020 07:00:00 18,3 14,4 21 11 33 18 W 1016,2 10 0,0
02.08.2020 06:00:00 18,3 14,6 22 12 32 18 W 1015,9 10 0,0
02.08.2020 05:00:00 18,4 15,3 20 11 35 19 W 1015,6 15 0,0
02.08.2020 04:00:00 17,8 15,4 18 10 39 21 WSW 1015,3 - 0,0
02.08.2020 03:00:00 17,7 15,1 13 7 41 22 WSW 1015,4 - 0,0
02.08.2020 02:00:00 18,0 14,5 19 11 43 23 WSW 1015,6 15 0,0
02.08.2020 01:00:00 18,1 14,4 19 11 40 22 SW 1015,9 10 0,0
02.08.2020 00:00:00 18,1 14,6 21 11 33 18 SW 1016,2 10 0,0
01.08.2020 23:00:00 18,5 14,2 18 10 32 17 SW 1016,0 20 0,0
01.08.2020 22:00:00 19,0 14,0 21 12 40 22 SW 1016,3 10 0,0
01.08.2020 21:00:00 19,7 14,1 23 12 44 24 SW 1016,4 10 0,0
01.08.2020 20:00:00 21,4 14,8 29 16 50 27 WSW 1016,4 20 0,0
01.08.2020 19:00:00 22,0 14,1 24 13 42 23 WSW 1016,6 10 0,0
01.08.2020 18:00:00 22,2 14,6 19 11 42 23 WSW 1016,6 10 0,0
01.08.2020 17:00:00 24,1 13,0 26 14 41 22 W 1016,5 10 0,0
01.08.2020 16:00:00 22,7 16,5 26 14 39 21 W 1016,5 10 0,0
01.08.2020 15:00:00 22,3 16,3 27 15 37 20 W 1016,6 10 0,0
01.08.2020 14:00:00 21,8 15,6 28 15 36 19 W 1016,6 20 0,0
01.08.2020 13:00:00 22,3 16,1 22 12 35 19 W 1016,6 10 0,0
01.08.2020 12:00:00 21,8 16,5 23 13 34 18 W 1016,4 10 0,0
01.08.2020 11:00:00 21,3 17,5 23 12 35 19 W 1015,9 10 0,0
01.08.2020 10:00:00 19,9 17,1 13 7 31 17 WSW 1015,4 10 0,0
01.08.2020 09:00:00 18,9 16,3 18 10 41 22 SW 1015,1 10 0,0
01.08.2020 08:00:00 18,1 16,3 18 10 36 19 SW 1015,1 15 0,0
01.08.2020 07:00:00 18,7 17,4 19 10 34 19 WSW 1014,6 10 0,0
01.08.2020 06:00:00 18,8 17,6 18 10 41 22 SW 1014,4 10 0,0
01.08.2020 05:00:00 18,6 17,4 18 10 43 23 SW 1013,9 - 0,0
01.08.2020 04:00:00 18,5 17,0 16 9 35 19 SW 1013,4 - 0,0
01.08.2020 03:00:00 19,0 17,0 22 12 41 22 SW 1013,3 - 0,0
01.08.2020 02:00:00 19,9 16,7 21 11 36 19 SW 1013,0 15 0,0
01.08.2020 01:00:00 20,1 16,3 22 12 40 21 SW 1013,2 10 0,0
01.08.2020 00:00:00 21,2 15,3 19 10 32 17 SW 1013,3 10 0,0
31.07.2020 23:00:00 23,1 14,9 16 9 27 15 SW 1012,8 15 0,0
31.07.2020 22:00:00 24,6 15,5 16 9 31 17 SW 1011,9 10 0,0
31.07.2020 21:00:00 27,6 16,2 16 8 37 20 WSW 1010,8 10 0,0
31.07.2020 20:00:00 27,5 17,4 24 13 51 27 W 1010,6 16 0,0
31.07.2020 19:00:00 34,7 14,6 27 15 48 26 SSW 1010,0 10 0,0
31.07.2020 18:00:00 37,4 14,1 19 10 34 19 SSE 1010,0 10 0,0
31.07.2020 17:00:00 37,3 12,7 23 13 39 21 SSE 1010,7 10 0,0
31.07.2020 16:00:00 36,9 11,7 23 12 45 24 SSE 1011,2 10 0,0
31.07.2020 15:00:00 35,5 12,5 23 12 36 19 SE 1011,7 10 0,0
31.07.2020 14:00:00 34,2 12,0 22 12 34 18 SE 1012,0 20 0,0
31.07.2020 13:00:00 32,7 11,3 21 11 29 16 SE 1012,7 10 0,0
31.07.2020 12:00:00 30,7 12,1 18 10 26 14 SE 1013,5 10 0,0
31.07.2020 11:00:00 28,3 12,6 16 9 25 13 SE 1014,0 10 0,0
31.07.2020 10:00:00 25,0 12,9 14 8 26 14 SE 1014,1 10 0,0
31.07.2020 09:00:00 22,0 12,5 21 12 32 17 SE 1014,3 10 0,0
31.07.2020 08:00:00 20,1 11,3 15 8 22 12 SE 1014,7 10 0,0
31.07.2020 07:00:00 19,4 11,2 13 7 25 14 ESE 1015,1 10 0,0
31.07.2020 06:00:00 19,3 11,6 13 7 21 11 ESE 1015,1 10 0,0
31.07.2020 05:00:00 19,8 12,3 16 9 22 12 SE 1015,5 - 0,0
31.07.2020 04:00:00 19,9 12,6 15 8 26 14 ESE 1016,2 - 0,0
31.07.2020 03:00:00 20,8 13,0 17 9 24 13 ESE 1016,5 - 0,0
31.07.2020 02:00:00 20,9 13,6 17 9 28 15 ESE 1016,8 15 0,0
31.07.2020 01:00:00 21,0 13,7 19 11 26 14 ESE 1017,0 10 0,0
31.07.2020 00:00:00 20,5 14,6 19 11 26 14 E 1017,1 10 0,0
30.07.2020 23:00:00 20,0 17,2 16 8 29 16 ENE 1017,1 20 0,0
30.07.2020 22:00:00 20,1 15,7 23 12 29 16 ENE 1017,0 10 0,0
30.07.2020 21:00:00 20,2 16,6 18 10 25 14 ENE 1017,2 10 0,0
30.07.2020 20:00:00 21,1 15,9 19 11 25 13 NE 1017,4 18 0,0
30.07.2020 19:00:00 21,6 15,7 16 9 22 12 NE 1017,7 10 0,0
30.07.2020 18:00:00 22,1 16,4 15 8 22 12 NE 1018,2 10 0,0
30.07.2020 17:00:00 21,8 15,6 17 9 24 13 NE 1018,9 10 0,0
30.07.2020 16:00:00 21,8 15,4 19 10 23 13 NE 1019,3 10 0,0
30.07.2020 15:00:00 21,7 15,1 17 9 20 11 NNE 1019,5 10 -
30.07.2020 14:00:00 21,1 14,0 11 6 16 9 NNE 1019,8 15 0,0
30.07.2020 13:00:00 20,9 13,6 13 7 17 9 NNE 1020,5 10 0,0
30.07.2020 12:00:00 20,3 12,8 12 6 15 8 NNE 1020,5 10 0,0
30.07.2020 11:00:00 19,8 12,1 9 5 14 7 NE 1020,6 20 0,0
30.07.2020 10:00:00 20,1 10,5 5 3 13 7 SSE 1020,5 10 0,0
30.07.2020 09:00:00 17,8 10,2 4 2 6 3 S 1020,5 10 0,0
30.07.2020 08:00:00 15,1 11,3 4 2 9 5 SSW 1020,7 10 0,0
30.07.2020 07:00:00 13,3 10,5 6 3 11 6 SSW 1020,5 10 0,0
30.07.2020 06:00:00 13,1 10,5 4 2 11 6 S 1020,5 10 0,0
30.07.2020 05:00:00 13,4 10,2 4 2 10 5 SW 1020,2 20 0,0
30.07.2020 04:00:00 14,2 10,2 4 2 8 4 SSW 1020,4 - 0,0
30.07.2020 03:00:00 15,4 10,4 4 2 8 5 SSW 1020,6 - 0,0
30.07.2020 02:00:00 15,2 10,2 3 1 12 7 SW 1020,7 20 0,0
30.07.2020 01:00:00 15,7 10,7 10 5 15 8 SW 1020,7 10 0,0
30.07.2020 00:00:00 16,1 10,6 9 5 15 8 SSW 1020,8 10 0,0
29.07.2020 23:00:00 16,9 11,2 11 6 18 10 SSW 1020,7 10 0,0
29.07.2020 22:00:00 18,0 12,4 13 7 17 9 W 1020,7 10 0,0
29.07.2020 21:00:00 18,1 12,5 10 5 15 8 W 1020,5 10 0,0
29.07.2020 20:00:00 19,2 11,5 11 6 22 12 NW 1020,4 20 0,0
29.07.2020 19:00:00 19,3 11,1 14 8 25 13 NW 1020,4 10 0,0

tt = Température de l'air
td = dewpoint
ff = Vitesse du vent
fx = gusts
dd = Direction du vent
ppp = reduced air pressure
vv = visibility
rr = Quantités de précipitations

stations d'obs. à proximité